Погода в Оситняжке

Украина / Кировоградская область     48°54′23″N   31°48′43″E
темп.,
°C
ветер,
м/с
пор.,
м/с
влажн.,
%
обл.,
%
осадки,
мм/ч
давл.,
гПа
погр.,
м
8 марта, пн
пн823:00−2зюз7157620 0.0 1015383
02:00−2зюз6157833 0.0 1013356
05:00−3зюз6148117 0.0 1013390
08:00−2з6128334 0.0 1012475
11:00+1зсз698882 0.0 1013767
14:00+1зсз588591 0.1 1013846
17:000зсз377995 0.1 1013273
20:00−2з378286 0.2 1014143
9 марта, вт
вт923:00−3сз611871 0.0 1015612
02:00−4сз59798 0.0 1017458
05:00−5сз49820 0.0 1018410
08:00−4сз57790 0.0 1020722
11:00−2сз467283 0.1 1020944
14:00−1сз456692 0.3 10211094
17:00−2с3470100 0.1 1022807
20:00−4св357497 0.1 1024291
10 марта, ср
ср1023:00−5св237177 0.0 1025237
02:00−6всв127345 0.0 102595
05:00−6в227463 0.0 102583
08:00−5вюв247082 0.0 1026320
11:00−3вюв3354100 0.0 1026615
14:00−2вюв2245100 0.0 1025957
17:00−2вюв224997 0.0 1024527
20:00−3в225686 0.0 102551
11 марта, чт
чт1123:00−4в226183 0.0 102672
02:00−5юв226255 0.0 102628
05:00−5вюв11620 0.0 102621
08:00−4юв12560 0.0 1027153
11:00−1ююв23420 0.0 1026884
14:000ююз33390 0.0 10261197
17:000ю23500 0.0 1025214
20:00−2ююв485524 0.0 1025271
12 марта, пт
пт1223:00−1ююв71351100 0.0 1024594
02:00−1ю81551100 0.0 1022714
05:00−3ю101789100 0.3 1019757
08:00−2ю111791100 1.0 1018920
11:00+1ю101796100 1.8 1015980
14:00+2ююз91697100 4.5 1013832
17:00+1юз61297100 2.6 1012370
20:00+2юз3598100 4.1 1012119